RYR30AM LIRN-LEPA

Flight info

Callsign RYR30AM
Flight time 1h 28m
Altitude 33000
Route EDOPA DCT TAGEL DCT BETOT/N0442F350 DCT EKPOD DCT GOKMI DCT SUPUX DCT KUPIM DCT SUXER DCT RIPAL DCT MORSS
Aircraft B738/M-SDE2E3FGHIRWXY/LB1

Departure

Time 2026-04-30 17:41
Airport Naples International Airport (LIRN)

Arrival

Time 2026-04-30 19:10
Airport Palma de Mallorca Airport (LEPA)
Time Latitude Longitude Altitude Speed Heading
2026-04-30 17:39 40.91443 14.23640 13190 ft 284 kts 235°
2026-04-30 17:41 40.78759 14.04358 17113 ft 371 kts 233°
2026-04-30 17:42 40.75338 13.99186 18478 ft 377 kts 234°
2026-04-30 17:42 40.70112 13.91292 20181 ft 384 kts 234°
2026-04-30 17:43 40.66580 13.85972 21363 ft 388 kts 235°
2026-04-30 17:44 40.61185 13.77861 22935 ft 396 kts 235°
2026-04-30 17:44 40.55688 13.69620 24361 ft 402 kts 235°
2026-04-30 17:46 40.46356 13.55680 26399 ft 411 kts 235°
2026-04-30 17:47 40.38722 13.44322 27901 ft 418 kts 235°
2026-04-30 17:48 40.31287 13.32575 29119 ft 414 kts 251°
2026-04-30 17:48 40.30247 13.21754 30303 ft 398 kts 277°
2026-04-30 17:49 40.31161 13.07550 32058 ft 385 kts 277°
2026-04-30 17:50 40.31964 12.93729 33691 ft 376 kts 277°
2026-04-30 17:51 40.32535 12.83552 34573 ft 373 kts 277°
2026-04-30 17:52 40.33100 12.73332 35110 ft 378 kts 277°
2026-04-30 17:54 40.34738 12.42651 35120 ft 372 kts 277°
2026-04-30 17:56 40.36121 12.15467 35121 ft 375 kts 276°
2026-04-30 17:58 40.37124 11.94918 35121 ft 377 kts 276°
2026-04-30 18:00 40.38408 11.67440 35114 ft 377 kts 276°
2026-04-30 18:01 40.39043 11.50261 35122 ft 377 kts 275°
2026-04-30 18:02 40.39685 11.29705 35107 ft 376 kts 275°
2026-04-30 18:04 40.40305 11.09109 35125 ft 377 kts 275°
2026-04-30 18:06 40.41078 10.81561 35130 ft 379 kts 275°
2026-04-30 18:08 40.41701 10.57361 35121 ft 379 kts 275°
2026-04-30 18:10 40.42353 10.29709 35128 ft 380 kts 274°
2026-04-30 18:11 40.42871 10.05395 35134 ft 381 kts 274°
2026-04-30 18:13 40.43211 9.88001 35139 ft 383 kts 274°
2026-04-30 18:14 40.43505 9.71709 35136 ft 383 kts 274°
2026-04-30 18:15 40.43853 9.50722 35127 ft 382 kts 274°
2026-04-30 18:16 40.44059 9.36748 35133 ft 384 kts 273°
2026-04-30 18:17 40.44158 9.29767 35129 ft 385 kts 273°
2026-04-30 18:18 40.44299 9.19208 35132 ft 386 kts 273°
2026-04-30 18:18 40.44316 9.12143 35127 ft 387 kts 272°
2026-04-30 18:19 40.44287 9.05068 35115 ft 387 kts 272°
2026-04-30 18:19 40.44258 8.97993 35122 ft 388 kts 272°
2026-04-30 18:20 40.44234 8.90904 35118 ft 388 kts 272°
2026-04-30 18:20 40.44205 8.83809 35116 ft 388 kts 272°
2026-04-30 18:21 40.44172 8.76719 35099 ft 388 kts 272°
2026-04-30 18:21 40.44136 8.69686 35078 ft 388 kts 271°
2026-04-30 18:22 40.44096 8.62597 35095 ft 388 kts 271°
2026-04-30 18:22 40.44027 8.51977 35094 ft 388 kts 271°
2026-04-30 18:23 40.43976 8.44881 35085 ft 388 kts 271°
2026-04-30 18:23 40.43921 8.37835 35078 ft 389 kts 271°
2026-04-30 18:24 40.43831 8.27186 35074 ft 389 kts 271°
2026-04-30 18:25 40.43652 8.20074 35082 ft 391 kts 268°
2026-04-30 18:25 40.43020 8.09385 35080 ft 392 kts 268°
2026-04-30 18:26 40.42391 7.98666 35073 ft 394 kts 265°
2026-04-30 18:27 40.41041 7.87996 35073 ft 396 kts 262°
2026-04-30 18:28 40.39611 7.77313 35073 ft 396 kts 263°
2026-04-30 18:28 40.38231 7.66665 35070 ft 396 kts 263°
2026-04-30 18:29 40.36380 7.52427 35072 ft 396 kts 263°
2026-04-30 18:30 40.34512 7.38203 35075 ft 395 kts 262°
2026-04-30 18:31 40.33102 7.27553 35073 ft 395 kts 262°
2026-04-30 18:32 40.31699 7.16910 35073 ft 395 kts 262°
2026-04-30 18:33 40.30296 7.06329 35075 ft 395 kts 262°
2026-04-30 18:33 40.28877 6.95706 35080 ft 395 kts 262°
2026-04-30 18:34 40.27448 6.85090 35079 ft 395 kts 262°
2026-04-30 18:35 40.26489 6.78008 35074 ft 395 kts 262°
2026-04-30 18:35 40.25521 6.70896 35085 ft 397 kts 262°
2026-04-30 18:36 40.24062 6.60236 35080 ft 400 kts 262°
2026-04-30 18:37 40.22575 6.49451 35075 ft 402 kts 262°
2026-04-30 18:37 40.21575 6.42238 35078 ft 403 kts 261°
2026-04-30 18:38 40.20568 6.35013 35079 ft 404 kts 261°
2026-04-30 18:38 40.19555 6.27773 35075 ft 404 kts 261°
2026-04-30 18:39 40.18544 6.20590 35069 ft 404 kts 261°
2026-04-30 18:39 40.17524 6.13375 35075 ft 403 kts 261°
2026-04-30 18:40 40.16496 6.06132 35067 ft 403 kts 261°
2026-04-30 18:40 40.15988 6.02560 34832 ft 407 kts 261°
2026-04-30 18:40 40.15468 5.98919 34387 ft 407 kts 261°
2026-04-30 18:40 40.14948 5.95283 33900 ft 405 kts 261°
2026-04-30 18:41 40.14429 5.91666 33365 ft 405 kts 261°
2026-04-30 18:41 40.13909 5.88047 32849 ft 405 kts 261°
2026-04-30 18:41 40.13389 5.84428 32334 ft 405 kts 261°
2026-04-30 18:41 40.12875 5.80805 31832 ft 405 kts 261°
2026-04-30 18:42 40.12365 5.77181 31339 ft 406 kts 261°
2026-04-30 18:42 40.11342 5.69921 30367 ft 407 kts 261°
2026-04-30 18:42 40.10823 5.66248 29850 ft 415 kts 260°
2026-04-30 18:45 40.05398 5.28503 24757 ft 429 kts 260°
2026-04-30 18:45 40.04841 5.24679 24301 ft 429 kts 260°
2026-04-30 18:45 40.04282 5.20856 23843 ft 427 kts 260°
2026-04-30 18:46 40.03729 5.17078 23336 ft 420 kts 260°
2026-04-30 18:46 40.03183 5.13362 22797 ft 414 kts 260°
2026-04-30 18:46 40.02643 5.09685 22275 ft 412 kts 260°
2026-04-30 18:46 40.02103 5.06019 21762 ft 411 kts 260°
2026-04-30 18:47 40.01564 5.02370 21246 ft 409 kts 260°
2026-04-30 18:47 40.01025 4.98728 20748 ft 407 kts 260°
2026-04-30 18:47 40.00489 4.95112 20261 ft 406 kts 259°
2026-04-30 18:47 39.99951 4.91497 19641 ft 407 kts 259°
2026-04-30 18:48 39.99415 4.87897 19048 ft 401 kts 259°
2026-04-30 18:48 39.98886 4.84352 18466 ft 396 kts 259°
2026-04-30 18:48 39.98362 4.80851 17817 ft 391 kts 259°
2026-04-30 18:48 39.97842 4.77392 17169 ft 387 kts 259°
2026-04-30 18:49 39.97227 4.73995 16532 ft 383 kts 256°
2026-04-30 18:49 39.96531 4.70652 15915 ft 380 kts 255°
2026-04-30 18:49 39.95848 4.67376 15306 ft 378 kts 256°
2026-04-30 18:49 39.95166 4.64085 14725 ft 375 kts 256°
2026-04-30 18:50 39.94493 4.60826 14263 ft 370 kts 255°
2026-04-30 18:50 39.93824 4.57584 13782 ft 371 kts 255°
2026-04-30 18:50 39.93152 4.54325 13266 ft 373 kts 255°
2026-04-30 18:50 39.92480 4.51070 12752 ft 371 kts 255°
2026-04-30 18:51 39.91812 4.47835 12243 ft 368 kts 255°
2026-04-30 18:51 39.91147 4.44624 11747 ft 367 kts 255°
2026-04-30 18:51 39.90484 4.41423 11259 ft 365 kts 255°
2026-04-30 18:51 39.89823 4.38239 10777 ft 364 kts 255°
2026-04-30 18:52 39.89164 4.35065 10312 ft 362 kts 255°
2026-04-30 18:52 39.88507 4.31910 10153 ft 362 kts 255°
2026-04-30 18:52 39.87850 4.28754 10096 ft 360 kts 255°
2026-04-30 18:52 39.87195 4.25621 10085 ft 359 kts 255°
2026-04-30 18:53 39.86538 4.22488 10085 ft 359 kts 254°
2026-04-30 18:53 39.85618 4.19478 10076 ft 359 kts 241°
2026-04-30 18:53 39.84296 4.16711 10079 ft 360 kts 238°
2026-04-30 18:53 39.82966 4.13951 10068 ft 360 kts 239°
2026-04-30 18:54 39.81759 4.11099 10064 ft 360 kts 247°
2026-04-30 18:54 39.81065 4.07983 10081 ft 360 kts 261°
2026-04-30 18:54 39.80793 4.04752 10084 ft 360 kts 263°
2026-04-30 18:54 39.80502 4.01518 10070 ft 360 kts 263°
2026-04-30 18:55 39.80191 3.98291 10065 ft 360 kts 262°
2026-04-30 18:55 39.79552 3.91881 10073 ft 359 kts 262°
2026-04-30 18:55 39.79226 3.88651 10077 ft 359 kts 262°
2026-04-30 18:56 39.78571 3.82207 10056 ft 360 kts 262°
2026-04-30 18:56 39.78241 3.78972 9669 ft 361 kts 262°
2026-04-30 18:56 39.77912 3.75750 9284 ft 357 kts 262°
2026-04-30 18:57 39.77259 3.69391 8319 ft 353 kts 262°
2026-04-30 18:57 39.76934 3.66242 7877 ft 350 kts 262°
2026-04-30 18:57 39.76610 3.63107 7431 ft 349 kts 262°
2026-04-30 18:58 39.75968 3.56923 6585 ft 347 kts 262°
2026-04-30 18:58 39.75645 3.53820 6144 ft 346 kts 262°
2026-04-30 18:58 39.75324 3.50739 5681 ft 336 kts 262°
2026-04-30 18:59 39.74726 3.45040 5098 ft 299 kts 262°
2026-04-30 19:00 39.73941 3.37593 5003 ft 261 kts 263°
2026-04-30 19:00 39.73696 3.35273 5016 ft 257 kts 262°
2026-04-30 19:00 39.73209 3.30690 5040 ft 256 kts 262°
2026-04-30 19:01 39.72717 3.26069 5018 ft 260 kts 262°
2026-04-30 19:01 39.72550 3.24502 5020 ft 259 kts 262°
2026-04-30 19:02 39.72056 3.19887 5023 ft 257 kts 262°
2026-04-30 19:02 39.71482 3.14545 5030 ft 257 kts 262°
2026-04-30 19:03 39.71090 3.10763 5023 ft 243 kts 263°
2026-04-30 19:03 39.70018 3.06972 5030 ft 217 kts 236°
2026-04-30 19:04 39.68464 3.03591 4805 ft 222 kts 240°
2026-04-30 19:04 39.66892 3.00217 4228 ft 215 kts 240°
2026-04-30 19:05 39.65369 2.96998 3708 ft 203 kts 239°
2026-04-30 19:05 39.63915 2.93924 3174 ft 197 kts 238°
2026-04-30 19:06 39.62514 2.90961 2665 ft 189 kts 237°
2026-04-30 19:06 39.61838 2.89531 2405 ft 181 kts 238°
2026-04-30 19:06 39.60603 2.86915 1968 ft 158 kts 238°
2026-04-30 19:07 39.59506 2.84590 1547 ft 149 kts 238°
2026-04-30 19:07 39.58961 2.83436 1348 ft 152 kts 237°
2026-04-30 19:08 39.57927 2.81232 985 ft 133 kts 239°
2026-04-30 19:08 39.56968 2.79210 641 ft 135 kts 238°
2026-04-30 19:08 39.56470 2.78167 473 ft 138 kts 237°
2026-04-30 19:09 39.55499 2.76081 51 ft 132 kts 238°
2026-04-30 19:09 39.55056 2.75148 27 ft 104 kts 238°
2026-04-30 19:09 39.54758 2.74518 31 ft 75 kts 238°
2026-04-30 19:10 39.54551 2.73945 33 ft 26 kts 265°
2026-04-30 19:10 39.54549 2.73811 33 ft 0 kts 269°
2026-04-30 19:12 39.54549 2.73794 33 ft 8 kts 269°
2026-04-30 19:12 39.54557 2.73701 34 ft 11 kts 294°
2026-04-30 19:13 39.54662 2.73610 34 ft 7 kts 339°
2026-04-30 19:13 39.54721 2.73676 34 ft 0 kts 59°